sat.trackr.live / text

‹ back to catalog

STARLINK-31728

NORAD 59496 · 2024-071N

PAYLOAD ACTIVE UNKNOWN

§ Identity

Operator
Country
US
Launch date
2024-04-13
Launch site
AFETR
Launch vehicle
Mass (kg)
RCS (m²)

Purposes: comms

External: N2YO · Heavens-Above · Gunter

§ Orbital elements

Epoch: 2026-05-25T01:06:38.204064Z

Period
94.27 min
Inclination
42.9998°
Eccentricity
0.0001770
Mean motion
15.27583994 rev/d
Perigee alt
481.8 km
Apogee alt
484.3 km
Semi-major
6,861.2 km
B*
6.6083e-4
RAAN
268.4950°
Arg perigee
280.1978°
Mean anomaly
79.8673°
Rev number
11,988

§ Raw data

STARLINK-317281 59496U 24071N   26145.04627551  .00017969  00000+0  66083-3 0  99922 59496  42.9998 268.4950 0001770 280.1978  79.8673 15.27583994119880

JSON: /api/v1/satellites/59496 · /tle

For live sub-satellite position, see the globe view (requires WebGL).

§ Visibility from observer

Set your observer location to see the next 7 days of passes ≥ 10°. The values pass through the URL so the page stays shareable.

No JS? Fill the form by hand. The geolocation button needs JavaScript.